Location: The Saddle
(36.8333°N, 80.3417°W)
Time: 23:44:32
(UTC-05:00)

Gurwin Techsat 1B - Visible Passes

Search period start: 26 February 2024 00:00
Search period end: 07 March 2024 00:00
Orbit: 810 x 813 km, 98.9° (Epoch: 26 February)

Date Brightness Start Highest point End Pass type
(mag) Time Alt. Az. Time Alt. Az. Time Alt. Az.
26 Feb 10.7 04:39:42 10° N 04:40:31 14° NNW 04:40:31 14° NNW visible
27 Feb 10.8 04:16:10 10° N 04:17:12 16° N 04:17:12 16° N visible
28 Feb 10.9 03:52:52 10° NNE 03:53:54 16° NNE 03:53:54 16° NNE visible
29 Feb 11.1 03:29:48 10° NNE 03:30:35 14° NNE 03:30:35 14° NNE visible
29 Feb 10.7 05:11:06 10° NNW 05:11:46 12° NNW 05:11:46 12° NNW visible
01 Mar 11.5 03:06:59 10° NNE 03:07:17 11° NE 03:07:17 11° NE visible
01 Mar 10.5 04:47:06 10° N 04:48:28 16° NNW 04:48:28 16° NNW visible
02 Mar 10.4 04:23:29 10° N 04:25:10 20° N 04:25:10 20° N visible
03 Mar 10.5 04:00:07 10° N 04:01:51 21° N 04:01:51 21° N visible
04 Mar 10.8 03:36:58 10° NNE 03:38:33 20° NNE 03:38:33 20° NNE visible
04 Mar 10.6 05:18:43 10° NNW 05:19:44 13° NW 05:19:44 13° NW visible
05 Mar 11.1 03:14:05 10° NNE 03:15:14 16° NE 03:15:14 16° NE visible
05 Mar 10.3 04:54:30 10° NNW 04:56:26 18° NNW 04:56:26 18° NNW visible
06 Mar 11.5 02:51:31 10° NE 02:51:56 12° NE 02:51:56 12° NE visible
06 Mar 10.1 04:30:48 10° N 04:33:08 24° NNW 04:33:08 24° NNW visible
